• In Uzbekistan
  • List of Countries
  • For 7 days
  • Water Temperature
  • Weather Map
  • Weather Widgets
  • user-avatar
    Login

    Hourly Weather Klagenfurt

    Today, 28 January, Tuesday

    Time Temperature Precipitation Wind Pressure Humidity
    00:00 +3°C° 0 mm 1 mps 685 mmHg 95%
    01:00 +3°C° 0 mm 1 mps 685 mmHg 95%
    02:00 +3°C° 0.2 mm 1 mps 684 mmHg 96%
    03:00 +3°C° 0.2 mm 1 mps 684 mmHg 96%
    04:00 +3°C° 0.2 mm 1 mps 683 mmHg 96%
    05:00 +3°C° 0.5 mm 1 mps 682 mmHg 96%
    06:00 +2°C° 0.5 mm 2 mps 682 mmHg 97%
    07:00 +3°C° 0.5 mm 2 mps 682 mmHg 97%
    08:00 +3°C° 0.4 mm 2 mps 682 mmHg 96%
    09:00 +3°C° 0.4 mm 2 mps 681 mmHg 95%
    10:00 +4°C° 0.4 mm 2 mps 681 mmHg 94%
    11:00 +4°C° 0.5 mm 2 mps 681 mmHg 94%
    12:00 +4°C° 0.5 mm 2 mps 680 mmHg 94%
    13:00 +4°C° 0.5 mm 2 mps 679 mmHg 94%
    14:00 +4°C° 1.9 mm 2 mps 678 mmHg 94%
    15:00 +4°C° 1.9 mm 2 mps 678 mmHg 95%
    16:00 +4°C° 1.9 mm 2 mps 677 mmHg 96%
    17:00 +3°C° 1.1 mm 2 mps 677 mmHg 95%
    18:00 +3°C° 1.1 mm 2 mps 678 mmHg 95%
    19:00 +3°C° 1.1 mm 1 mps 678 mmHg 95%
    20:00 +3°C° 1.6 mm 1 mps 679 mmHg 94%
    21:00 +2°C° 1.6 mm 1 mps 679 mmHg 93%
    22:00 +1°C° 1.6 mm 1 mps 680 mmHg 93%
    23:00 0°C° 0.2 mm 1 mps 681 mmHg 92%

    Tomorrow, 29 January, Wednesday

    Time Temperature Precipitation Wind Pressure Humidity
    00:00 0°C° 0.2 mm 1 mps 681 mmHg 92%
    01:00 0°C° 0.2 mm 1 mps 682 mmHg 91%
    02:00 0°C° 0 mm 1 mps 682 mmHg 91%
    03:00 -1°C° 0 mm 1 mps 681 mmHg 91%
    04:00 -1°C° 0 mm 1 mps 681 mmHg 90%
    05:00 -1°C° 0 mm 1 mps 681 mmHg 90%
    06:00 -1°C° 0 mm 1 mps 682 mmHg 89%
    07:00 -1°C° 0 mm 1 mps 682 mmHg 88%
    08:00 -1°C° 0 mm 0 mps 683 mmHg 84%
    09:00 0°C° 0 mm 0 mps 683 mmHg 80%
    10:00 +1°C° 0 mm 0 mps 684 mmHg 76%
    11:00 +2°C° 0 mm 0 mps 684 mmHg 72%
    12:00 +3°C° 0 mm 0 mps 684 mmHg 68%
    13:00 +4°C° 0 mm 0 mps 684 mmHg 64%
    14:00 +3°C° 0 mm 0 mps 684 mmHg 68%
    15:00 +3°C° 0 mm 0 mps 684 mmHg 71%
    16:00 +3°C° 0 mm 0 mps 684 mmHg 74%
    17:00 +1°C° 0 mm 0 mps 684 mmHg 76%
    18:00 0°C° 0 mm 0 mps 685 mmHg 78%
    19:00 -1°C° 0 mm 0 mps 685 mmHg 79%
    20:00 -1°C° 0 mm 0 mps 686 mmHg 79%
    21:00 -1°C° 0 mm 0 mps 686 mmHg 79%
    22:00 -2°C° 0 mm 0 mps 686 mmHg 79%
    23:00 -1°C° 0 mm 1 mps 687 mmHg 81%

    Day after tomorrow, 30 January, Thursday

    Time Temperature Precipitation Wind Pressure Humidity
    00:00 -1°C° 0 mm 1 mps 688 mmHg 83%
    01:00 -1°C° 0 mm 1 mps 688 mmHg 85%
    02:00 -1°C° 0 mm 1 mps 688 mmHg 84%
    03:00 -2°C° 0 mm 1 mps 689 mmHg 84%
    04:00 -3°C° 0 mm 0 mps 689 mmHg 83%
    05:00 -3°C° 0 mm 0 mps 689 mmHg 82%
    06:00 -3°C° 0 mm 0 mps 690 mmHg 81%
    07:00 -3°C° 0 mm 0 mps 690 mmHg 80%
    08:00 -2°C° 0 mm 0 mps 691 mmHg 75%
    09:00 0°C° 0 mm 0 mps 691 mmHg 71%
    10:00 +1°C° 0 mm 0 mps 691 mmHg 66%
    11:00 +2°C° 0 mm 0 mps 691 mmHg 63%
    12:00 +3°C° 0 mm 0 mps 691 mmHg 59%
    13:00 +5°C° 0 mm 1 mps 691 mmHg 56%
    14:00 +4°C° 0 mm 1 mps 690 mmHg 61%
    15:00 +4°C° 0 mm 1 mps 690 mmHg 65%
    16:00 +3°C° 0 mm 1 mps 689 mmHg 70%
    17:00 +2°C° 0 mm 1 mps 689 mmHg 73%
    18:00 +1°C° 0 mm 1 mps 689 mmHg 75%
    19:00 +1°C° 0 mm 1 mps 689 mmHg 78%
    20:00 0°C° 0 mm 1 mps 689 mmHg 79%
    21:00 0°C° 0 mm 1 mps 689 mmHg 80%
    22:00 0°C° 0 mm 1 mps 688 mmHg 82%
    23:00 0°C° 0 mm 1 mps 688 mmHg 83%

    31 January, Friday

    Time Temperature Precipitation Wind Pressure Humidity
    00:00 0°C° 0 mm 1 mps 688 mmHg 85%
    01:00 0°C° 0 mm 1 mps 688 mmHg 87%
    02:00 0°C° 0 mm 1 mps 688 mmHg 87%
    03:00 0°C° 0 mm 1 mps 688 mmHg 88%
    04:00 -1°C° 0 mm 1 mps 687 mmHg 88%
    05:00 0°C° 0 mm 1 mps 687 mmHg 86%
    06:00 0°C° 0 mm 1 mps 687 mmHg 84%
    07:00 0°C° 0 mm 1 mps 687 mmHg 82%
    08:00 +1°C° 0 mm 1 mps 688 mmHg 78%
    09:00 +2°C° 0 mm 1 mps 688 mmHg 74%
    10:00 +4°C° 0 mm 1 mps 689 mmHg 70%
    11:00 +4°C° 0 mm 1 mps 689 mmHg 69%
    12:00 +4°C° 0 mm 2 mps 689 mmHg 68%
    13:00 +5°C° 0 mm 2 mps 689 mmHg 67%
    14:00 +4°C° 0 mm 2 mps 689 mmHg 71%
    15:00 +5°C° 0 mm 1 mps 688 mmHg 75%
    16:00 +4°C° 0 mm 1 mps 688 mmHg 80%
    17:00 +3°C° 0 mm 1 mps 688 mmHg 81%
    18:00 +2°C° 0 mm 1 mps 688 mmHg 82%
    19:00 +1°C° 0 mm 1 mps 688 mmHg 84%
    20:00 +1°C° 0 mm 1 mps 688 mmHg 82%
    21:00 +1°C° 0 mm 1 mps 688 mmHg 80%
    22:00 +1°C° 0 mm 1 mps 688 mmHg 78%
    23:00 +1°C° 0 mm 1 mps 688 mmHg 77%

    1 February, Saturday

    Time Temperature Precipitation Wind Pressure Humidity
    00:00 +1°C° 0 mm 1 mps 688 mmHg 76%
    01:00 +1°C° 0 mm 1 mps 688 mmHg 75%
    02:00 +1°C° 0 mm 1 mps 688 mmHg 75%
    03:00 +1°C° 0 mm 1 mps 688 mmHg 74%
    04:00 +1°C° 0 mm 1 mps 687 mmHg 74%
    05:00 +1°C° 0 mm 1 mps 687 mmHg 75%
    06:00 +1°C° 0 mm 1 mps 687 mmHg 76%
    07:00 +1°C° 0 mm 1 mps 687 mmHg 77%
    08:00 +2°C° 0 mm 1 mps 688 mmHg 75%
    09:00 +3°C° 0 mm 1 mps 688 mmHg 73%
    10:00 +5°C° 0 mm 1 mps 688 mmHg 71%
    11:00 +5°C° 0 mm 1 mps 688 mmHg 70%
    12:00 +6°C° 0 mm 1 mps 688 mmHg 70%
    13:00 +7°C° 0 mm 1 mps 688 mmHg 69%
    14:00 +6°C° 0 mm 1 mps 688 mmHg 73%
    15:00 +6°C° 0 mm 1 mps 688 mmHg 76%
    16:00 +5°C° 0 mm 1 mps 688 mmHg 80%
    17:00 +5°C° 0 mm 1 mps 688 mmHg 81%
    18:00 +4°C° 0 mm 1 mps 689 mmHg 83%
    19:00 +3°C° 0 mm 1 mps 689 mmHg 84%
    20:00 +3°C° 0 mm 1 mps 689 mmHg 84%
    21:00 +3°C° 0 mm 1 mps 690 mmHg 83%
    22:00 +3°C° 0 mm 1 mps 690 mmHg 83%
    23:00 +3°C° 0 mm 1 mps 690 mmHg 84%

    2 February, Sunday

    Time Temperature Precipitation Wind Pressure Humidity
    00:00 +2°C° 0 mm 1 mps 690 mmHg 84%
    01:00 +2°C° 0 mm 1 mps 690 mmHg 84%
    02:00 +2°C° 0 mm 1 mps 690 mmHg 85%
    03:00 +2°C° 0 mm 1 mps 690 mmHg 85%
    04:00 +2°C° 0 mm 1 mps 690 mmHg 85%
    05:00 +2°C° 0 mm 1 mps 690 mmHg 86%
    06:00 +2°C° 0 mm 1 mps 690 mmHg 86%
    07:00 +2°C° 0 mm 1 mps 690 mmHg 86%
    08:00 +3°C° 0 mm 1 mps 690 mmHg 83%
    09:00 +4°C° 0 mm 1 mps 691 mmHg 81%
    10:00 +5°C° 0 mm 1 mps 691 mmHg 78%
    11:00 +6°C° 0 mm 1 mps 691 mmHg 76%
    12:00 +6°C° 0 mm 1 mps 690 mmHg 74%
    13:00 +6°C° 0 mm 2 mps 690 mmHg 73%
    14:00 +6°C° 0 mm 2 mps 690 mmHg 76%
    15:00 +5°C° 0 mm 2 mps 689 mmHg 80%
    16:00 +4°C° 0 mm 2 mps 689 mmHg 84%
    17:00 +3°C° 0 mm 2 mps 689 mmHg 86%
    18:00 +3°C° 0 mm 2 mps 689 mmHg 89%
    19:00 +2°C° 0 mm 2 mps 688 mmHg 92%
    20:00 +2°C° 0 mm 2 mps 688 mmHg 92%
    21:00 +2°C° 0 mm 2 mps 688 mmHg 92%
    22:00 +2°C° 0 mm 2 mps 688 mmHg 92%
    23:00 +2°C° 0 mm 2 mps 688 mmHg 91%
    Show more